WAT2688 KOKC-KSLC

Flight info

Callsign WAT2688
Flight time N/A
Altitude 36000
Route STPHN3 ZEEWE ROLLS KA39Y GOSIP JNC HELPR PITTT2
Aircraft E195/M-SDE3GILORVW/S

Departure

Time 2026-04-16 08:18
Airport OKC Will Rogers World Airport (KOKC)

Arrival

Time N/A
Airport Salt Lake City International Airport (KSLC)
Time Latitude Longitude Altitude Speed Heading
2026-04-16 07:49 35.39482 -97.59887 1296 ft 0 kts 30°
2026-04-16 08:09 35.39477 -97.59891 1296 ft 2 kts 30°
2026-04-16 08:09 35.39463 -97.59900 1296 ft 2 kts 28°
2026-04-16 08:09 35.39448 -97.59911 1296 ft 2 kts 18°
2026-04-16 08:09 35.39433 -97.59907 1295 ft 2 kts 316°
2026-04-16 08:10 35.39423 -97.59891 1295 ft 2 kts 295°
2026-04-16 08:10 35.39418 -97.59874 1297 ft 1 kts 278°
2026-04-16 08:10 35.39417 -97.59870 1297 ft 0 kts 273°
2026-04-16 08:13 35.39417 -97.59872 1297 ft 2 kts 272°
2026-04-16 08:13 35.39417 -97.59919 1295 ft 8 kts 270°
2026-04-16 08:13 35.39437 -97.59997 1294 ft 11 kts 297°
2026-04-16 08:14 35.39419 -97.60092 1291 ft 13 kts 296°
2026-04-16 08:14 35.39494 -97.60181 1289 ft 16 kts 316°
2026-04-16 08:14 35.39577 -97.60277 1289 ft 17 kts 315°
2026-04-16 08:14 35.39667 -97.60380 1287 ft 19 kts 328°
2026-04-16 08:15 35.39797 -97.60401 1287 ft 19 kts 359°
2026-04-16 08:15 35.39929 -97.60401 1289 ft 19 kts
2026-04-16 08:15 35.40056 -97.60400 1292 ft 18 kts
2026-04-16 08:15 35.40180 -97.60402 1294 ft 17 kts 359°
2026-04-16 08:16 35.40298 -97.60401 1295 ft 17 kts
2026-04-16 08:16 35.40416 -97.60401 1296 ft 17 kts
2026-04-16 08:16 35.40536 -97.60405 1295 ft 17 kts 348°
2026-04-16 08:16 35.40578 -97.60473 1296 ft 16 kts 274°
2026-04-16 08:17 35.40528 -97.60572 1296 ft 17 kts 184°
2026-04-16 08:17 35.40222 -97.60573 1295 ft 79 kts 180°
2026-04-16 08:17 35.39437 -97.60574 1293 ft 144 kts 180°
2026-04-16 08:17 35.38312 -97.60574 1739 ft 170 kts 181°
2026-04-16 08:18 35.37095 -97.60549 2655 ft 184 kts 186°
2026-04-16 08:19 35.29235 -97.65668 7840 ft 265 kts 293°
2026-04-16 08:20 35.30205 -97.67615 8627 ft 270 kts 301°
2026-04-16 08:20 35.31249 -97.69538 9370 ft 272 kts 295°
2026-04-16 08:20 35.32002 -97.71663 10089 ft 274 kts 288°
2026-04-16 08:20 35.32688 -97.73904 10450 ft 290 kts 288°
2026-04-16 08:21 35.33492 -97.76222 10945 ft 300 kts 292°
2026-04-16 08:21 35.34360 -97.78565 11701 ft 302 kts 291°
2026-04-16 08:21 35.35237 -97.80921 12395 ft 305 kts 291°
2026-04-16 08:21 35.36122 -97.83288 13089 ft 308 kts 291°
2026-04-16 08:22 35.37019 -97.85685 13770 ft 311 kts 291°
2026-04-16 08:22 35.37922 -97.88103 14388 ft 313 kts 291°
2026-04-16 08:22 35.38829 -97.90535 15017 ft 314 kts 290°
2026-04-16 08:22 35.39740 -97.92977 15656 ft 316 kts 290°
2026-04-16 08:23 35.40654 -97.95437 16272 ft 318 kts 290°
2026-04-16 08:23 35.41574 -97.97906 16891 ft 320 kts 290°
2026-04-16 08:23 35.42496 -98.00391 17528 ft 321 kts 290°
2026-04-16 08:23 35.43426 -98.02892 18152 ft 323 kts 290°
2026-04-16 08:24 35.44369 -98.05438 18688 ft 325 kts 289°
2026-04-16 08:24 35.45311 -98.07976 19201 ft 329 kts 289°
2026-04-16 08:24 35.46261 -98.10542 19741 ft 332 kts 289°
2026-04-16 08:24 35.47088 -98.13186 20282 ft 332 kts 283°
2026-04-16 08:25 35.47543 -98.15943 20795 ft 330 kts 273°
2026-04-16 08:25 35.47837 -98.18756 21293 ft 334 kts 273°
2026-04-16 08:25 35.48103 -98.21586 21789 ft 336 kts 272°
2026-04-16 08:25 35.48362 -98.24445 22267 ft 338 kts 272°
2026-04-16 08:26 35.48620 -98.27326 22724 ft 341 kts 272°
2026-04-16 08:26 35.48881 -98.30226 23170 ft 343 kts 272°
2026-04-16 08:26 35.49141 -98.33145 23589 ft 346 kts 272°
2026-04-16 08:26 35.49402 -98.36089 23944 ft 348 kts 272°
2026-04-16 08:27 35.49665 -98.39043 24328 ft 350 kts 272°
2026-04-16 08:27 35.49929 -98.42018 24720 ft 352 kts 272°
2026-04-16 08:27 35.50194 -98.45014 25121 ft 354 kts 272°
2026-04-16 08:27 35.50458 -98.48020 25520 ft 356 kts 272°
2026-04-16 08:28 35.50725 -98.51053 25907 ft 358 kts 271°
2026-04-16 08:28 35.50991 -98.54103 26281 ft 361 kts 272°
2026-04-16 08:28 35.51264 -98.57215 26648 ft 363 kts 271°
2026-04-16 08:28 35.51533 -98.60311 26983 ft 365 kts 271°
2026-04-16 08:29 35.51802 -98.63418 27317 ft 367 kts 271°
2026-04-16 08:29 35.52074 -98.66548 27648 ft 369 kts 271°
2026-04-16 08:29 35.52345 -98.69691 27964 ft 372 kts 271°
2026-04-16 08:29 35.52614 -98.72851 28266 ft 374 kts 271°
2026-04-16 08:30 35.52890 -98.76032 28560 ft 376 kts 271°
2026-04-16 08:30 35.53166 -98.79232 28845 ft 378 kts 271°
2026-04-16 08:30 35.53439 -98.82444 29126 ft 380 kts 271°
2026-04-16 08:30 35.53716 -98.85670 29397 ft 381 kts 271°
2026-04-16 08:31 35.53992 -98.88922 29650 ft 383 kts 271°
2026-04-16 08:31 35.54268 -98.92169 29821 ft 378 kts 271°
2026-04-16 08:31 35.54819 -98.98712 29936 ft 394 kts 272°
2026-04-16 08:32 35.55392 -99.05515 29933 ft 400 kts 272°
2026-04-16 08:32 35.56046 -99.12277 29930 ft 402 kts 278°
2026-04-16 08:33 35.58066 -99.18809 29957 ft 411 kts 291°
2026-04-16 08:33 35.61019 -99.24878 29956 ft 414 kts 296°
2026-04-16 08:34 35.64074 -99.30892 29957 ft 415 kts 297°
2026-04-16 08:34 35.67133 -99.36916 29954 ft 415 kts 297°
2026-04-16 08:35 35.70187 -99.42952 29932 ft 415 kts 296°
2026-04-16 08:35 35.72893 -99.49181 29934 ft 411 kts 289°
2026-04-16 08:36 35.75041 -99.55689 29922 ft 410 kts 288°
2026-04-16 08:36 35.77129 -99.62228 29940 ft 411 kts 288°
2026-04-16 08:37 35.79217 -99.68778 29928 ft 411 kts 288°
2026-04-16 08:37 35.81303 -99.75337 29940 ft 412 kts 289°
2026-04-16 08:38 35.83404 -99.81956 29937 ft 412 kts 289°
2026-04-16 08:38 35.85490 -99.88538 29940 ft 413 kts 289°
2026-04-16 08:39 35.87573 -99.95135 29942 ft 413 kts 289°
2026-04-16 08:39 35.89655 -100.01738 29939 ft 414 kts 289°
2026-04-16 08:40 35.91740 -100.08363 29942 ft 414 kts 290°
2026-04-16 08:40 35.93823 -100.14998 29948 ft 415 kts 290°
2026-04-16 08:41 35.95905 -100.21644 29949 ft 416 kts 290°
2026-04-16 08:41 35.97987 -100.28306 29947 ft 416 kts 290°
2026-04-16 08:42 36.00067 -100.34980 29946 ft 417 kts 290°
2026-04-16 08:42 36.02146 -100.41664 29948 ft 417 kts 291°
2026-04-16 08:43 36.04225 -100.48361 29947 ft 418 kts 291°
2026-04-16 08:43 36.06303 -100.55074 29947 ft 418 kts 291°
2026-04-16 08:44 36.08397 -100.61853 29950 ft 430 kts 291°
2026-04-16 08:44 36.10556 -100.68861 29941 ft 437 kts 291°
2026-04-16 08:45 36.12725 -100.75918 29950 ft 436 kts 291°
2026-04-16 08:45 36.14874 -100.82923 29942 ft 435 kts 292°
2026-04-16 08:46 36.17016 -100.89924 29948 ft 435 kts 292°
2026-04-16 08:46 36.19154 -100.96932 29940 ft 435 kts 292°
2026-04-16 08:47 36.20928 -101.02761 29950 ft 435 kts 292°
2026-04-16 08:47 36.23056 -101.09764 29942 ft 435 kts 292°
2026-04-16 08:48 36.25183 -101.16781 29947 ft 435 kts 292°
2026-04-16 08:48 36.27319 -101.23849 29944 ft 434 kts 292°
2026-04-16 08:49 36.29462 -101.30957 29934 ft 435 kts 292°
2026-04-16 08:49 36.31575 -101.37985 29931 ft 435 kts 292°
2026-04-16 08:50 36.33684 -101.45014 29926 ft 435 kts 292°
2026-04-16 08:50 36.35791 -101.52052 29919 ft 435 kts 292°
2026-04-16 08:51 36.37892 -101.59091 29919 ft 435 kts 292°
2026-04-16 08:51 36.39991 -101.66144 29919 ft 435 kts 291°
2026-04-16 08:52 36.42086 -101.73197 29919 ft 435 kts 291°
2026-04-16 08:52 36.44174 -101.80244 29914 ft 435 kts 291°
2026-04-16 08:53 36.46276 -101.87353 29918 ft 435 kts 291°
2026-04-16 08:53 36.48356 -101.94407 29916 ft 435 kts 291°
2026-04-16 08:54 36.50669 -102.01338 29911 ft 434 kts 298°
2026-04-16 08:54 36.53551 -102.07925 29917 ft 434 kts 300°
2026-04-16 08:55 36.56483 -102.14478 29915 ft 433 kts 300°
2026-04-16 08:55 36.59414 -102.21039 29913 ft 434 kts 300°
2026-04-16 08:56 36.62348 -102.27621 29916 ft 434 kts 299°
2026-04-16 08:56 36.65274 -102.34205 29913 ft 435 kts 299°
2026-04-16 08:57 36.68202 -102.40802 29916 ft 435 kts 299°
2026-04-16 08:57 36.71126 -102.47404 29916 ft 436 kts 299°
2026-04-16 08:58 36.74068 -102.54059 29918 ft 435 kts 299°
2026-04-16 08:58 36.76994 -102.60689 29916 ft 436 kts 298°
2026-04-16 08:59 36.79915 -102.67324 29924 ft 436 kts 298°
2026-04-16 08:59 36.82834 -102.73969 29921 ft 437 kts 298°
2026-04-16 09:00 36.85750 -102.80622 29927 ft 437 kts 298°
2026-04-16 09:00 36.88663 -102.87279 29926 ft 437 kts 298°
2026-04-16 09:01 36.93021 -102.97263 29930 ft 437 kts 298°
2026-04-16 09:02 36.95924 -103.03929 29925 ft 437 kts 298°
2026-04-16 09:02 36.98825 -103.10611 29912 ft 437 kts 298°
2026-04-16 09:03 37.01720 -103.17288 29913 ft 437 kts 298°
2026-04-16 09:03 37.04606 -103.23976 29898 ft 437 kts 298°
2026-04-16 09:04 37.07519 -103.30708 29906 ft 437 kts 298°
2026-04-16 09:04 37.10405 -103.37404 29895 ft 437 kts 298°
2026-04-16 09:05 37.13294 -103.44118 29890 ft 438 kts 298°
2026-04-16 09:05 37.16176 -103.50833 29895 ft 438 kts 297°
2026-04-16 09:06 37.19063 -103.57577 29891 ft 438 kts 297°
2026-04-16 09:06 37.21945 -103.64321 29899 ft 439 kts 297°
2026-04-16 09:07 37.24826 -103.71078 29899 ft 439 kts 297°
2026-04-16 09:07 37.27703 -103.77839 29906 ft 439 kts 297°
2026-04-16 09:08 37.30575 -103.84602 29903 ft 439 kts 297°
2026-04-16 09:08 37.33443 -103.91367 29910 ft 439 kts 297°
2026-04-16 09:09 37.36309 -103.98144 29904 ft 439 kts 297°
2026-04-16 09:09 37.39164 -104.04911 29909 ft 438 kts 297°
2026-04-16 09:10 37.42017 -104.11689 29908 ft 438 kts 297°
2026-04-16 09:10 37.44878 -104.18501 29908 ft 438 kts 296°
2026-04-16 09:11 37.47723 -104.25287 29980 ft 437 kts 296°
2026-04-16 09:11 37.50576 -104.32104 29965 ft 438 kts 296°
2026-04-16 09:12 37.53408 -104.38884 29956 ft 437 kts 296°
2026-04-16 09:12 37.56237 -104.45673 29934 ft 437 kts 296°
2026-04-16 09:13 37.59056 -104.52456 29919 ft 437 kts 296°
2026-04-16 09:13 37.61875 -104.59238 29922 ft 437 kts 294°
2026-04-16 09:14 37.64024 -104.65011 29927 ft 437 kts 294°
2026-04-16 09:14 37.66572 -104.71971 29936 ft 437 kts 293°
2026-04-16 09:15 37.69124 -104.78956 29946 ft 438 kts 293°